Weather History for Cut Bank, MT

Change the Weather History Date:

Friday, January 4, 2013

  Actual Average Record
Temperature  
Mean Temperature 31 °F 22 °F  
Max Temperature 39 °F 32 °F 57 °F (1984)
Min Temperature 22 °F 11 °F -29 °F (1991)
Degree Days  
Heating Degree Days 34 43  
Month to date heating degree days 152 175  
Since 1 July heating degree days 3677 3765  
Cooling Degree Days 0 0  
Month to date cooling degree days 0 0  
Year to date cooling degree days 0 0  
Moisture  
Dew Point 19 °F    
Average Humidity 60    
Maximum Humidity 81    
Minimum Humidity 38    
Precipitation  
Precipitation 0.00 in 0.01 in 0.20 in (1909)
Month to date precipitation T 0.03  
Year to date precipitation T 0.03  
Snow  
Snow 0.00 in - - ()
Snow Depth 1.00 in    
Sea Level Pressure  
Sea Level Pressure 30.09 in    
Wind  
Wind Speed 22 mph (WSW)    
Max Wind Speed 40 mph    
Max Gust Speed 46 mph    
Visibility 10 miles    
Events      
T = Trace of Precipitation, MM = Missing Value Source: NWS Daily Summary

Daily Weather History Graph

Daily Weather History Graph

Search for Another Location

Airport:

Trip Planner

Search our weather history database for the weather conditions in past years. The results will help you decide how hot, cold, wet, or windy it might be!

Date:

Astronomy

Jan. 04, 2013 Rise Set
Actual Time 8:21 AM MST 4:48 PM MST
Civil Twilight 7:44 AM MST 5:24 PM MST
Nautical Twilight 7:05 AM MST 6:04 PM MST
Astronomical Twilight 6:27 AM MST 6:42 PM MST
Moon 12:02 AM MST (1/4) 11:27 AM MST (1/4)
Length of Visible Light 9h 39m
Length of Day
8h 26m
Waning Gibbous, 54% of the Moon is Illuminated
Jan 4
Waning Gibbous
Jan 4
Last Quarter
Jan 11
New
Jan 18
First Quarter
Jan 26
Full

Hourly Weather History & Observations

Time (MST) Temp. Windchill Dew Point Humidity Pressure Visibility Wind Dir Wind Speed Gust Speed Precip Events Conditions
12:56 AM 36.0 °F 23.7 °F 16.0 °F 44% 30.01 in 10.0 mi West 26.5 mph - N/A   Clear
1:56 AM 36.0 °F 23.5 °F 15.1 °F 43% 30.02 in 10.0 mi West 27.6 mph 39.1 mph N/A   Clear
2:56 AM 36.0 °F 24.7 °F 12.9 °F 39% 30.04 in 10.0 mi West 21.9 mph 29.9 mph N/A   Clear
3:31 AM 35.6 °F 24.5 °F 10.4 °F 35% 29.99 in 10.0 mi WSW 20.7 mph 26.5 mph N/A   Clear
3:56 AM 33.1 °F 18.7 °F 12.9 °F 43% 30.04 in 10.0 mi WSW 32.2 mph 40.3 mph N/A   Clear
4:56 AM 32.0 °F 18.1 °F 14.0 °F 48% 30.07 in 10.0 mi WSW 27.6 mph 33.4 mph N/A   Clear
5:56 AM 32.0 °F 18.1 °F 14.0 °F 48% 30.09 in 10.0 mi WSW 27.6 mph 33.4 mph N/A   Clear
6:56 AM 32.0 °F 17.0 °F 17.1 °F 54% 30.07 in 10.0 mi WSW 33.4 mph 44.9 mph N/A   Clear
7:56 AM 30.9 °F 16.2 °F 18.0 °F 59% 30.07 in 10.0 mi WSW 29.9 mph 38.0 mph N/A   Clear
8:56 AM 32.0 °F 17.9 °F 19.9 °F 61% 30.08 in 10.0 mi SW 28.8 mph 34.5 mph N/A   Clear
9:56 AM 34.0 °F 20.8 °F 21.9 °F 61% 30.06 in 10.0 mi WSW 27.6 mph 32.2 mph N/A   Clear
10:56 AM 35.1 °F 23.3 °F 23.0 °F 61% 30.09 in 10.0 mi WSW 23.0 mph 31.1 mph N/A   Clear
11:56 AM 37.9 °F 30.0 °F 24.1 °F 57% 30.07 in 10.0 mi West 12.7 mph 23.0 mph N/A   Clear
12:56 PM 37.0 °F 24.9 °F 24.1 °F 59% 30.05 in 10.0 mi West 27.6 mph 33.4 mph N/A   Clear
1:56 PM 37.0 °F 23.9 °F 24.1 °F 59% 30.04 in 10.0 mi WSW 33.4 mph 44.9 mph N/A   Clear
2:56 PM 36.0 °F 23.7 °F 24.1 °F 62% 30.07 in 10.0 mi WSW 26.5 mph 39.1 mph N/A   Clear
3:56 PM 35.1 °F 23.5 °F 24.1 °F 64% 30.09 in 10.0 mi West 21.9 mph 32.2 mph N/A   Mostly Cloudy
4:56 PM 32.0 °F 19.5 °F 21.9 °F 66% 30.12 in 10.0 mi WSW 21.9 mph - N/A   Scattered Clouds
5:56 PM 30.9 °F 20.2 °F 21.9 °F 69% 30.14 in 10.0 mi West 15.0 mph - N/A   Partly Cloudy
6:56 PM 28.9 °F 16.1 °F 21.0 °F 72% 30.14 in 10.0 mi West 19.6 mph - N/A   Clear
7:56 PM 26.1 °F 18.4 °F 19.0 °F 75% 30.17 in 10.0 mi WNW 6.9 mph - N/A   Clear
8:56 PM 23.0 °F 14.7 °F 17.1 °F 78% 30.19 in 10.0 mi West 6.9 mph - N/A   Clear
9:56 PM 23.0 °F 13.1 °F 17.1 °F 78% 30.20 in 10.0 mi West 9.2 mph - N/A   Clear
10:56 PM 24.1 °F 13.1 °F 17.1 °F 75% 30.22 in 10.0 mi WNW 11.5 mph - N/A   Clear
11:56 PM 25.0 °F 14.2 °F 18.0 °F 75% 30.21 in 10.0 mi WNW 11.5 mph - N/A   Clear